This demonstration page uses our WeatherBlox Daily Observations layout. Learn more.

Left ArrowRight Arrow

34.74481, -87.66753

Hourly Observations for August 24, 2015

Temp ( °F °C ) Dew Point ( °F °C ) Humidity (%) Winds ( mph kmh ) Pressure ( in mb ) Visibility ( mi km ) Precip ( " mm )
12:07 am 00:07 Partly Cloudy 77 25 74 23.3 90 90 NNW 3 6 29.97 1015 7 11 0.00 0.00
12:53 am 00:53 Clear with Mist and Fog 76 24.4 73 22.8 91 91 NW 5 7 29.99 1016 6 10 0.00 0.00
1:53 am 01:53 Partly Cloudy with Mist and Fog 76 24.4 74 23.3 94 94 NW 3 6 29.98 1015 5 8 0.00 0.00
2:53 am 02:53 Mostly Clear 77 25 74 23.3 90 90 NNW 5 7 29.98 1015 7 11 0.00 0.00
3:53 am 03:53 Mostly Clear 76 24.4 72 22.2 88 88 NNW 5 7 29.98 1015 7 11 0.00 0.00
4:53 am 04:53 Mostly Cloudy 75 23.9 71 21.7 88 88 N 5 7 29.99 1016 8 13 0.00 0.00
5:10 am 05:10 Cloudy 75 23.9 71 21.7 88 88 N 7 11 30.00 1016 8 13 0.00 0.00
5:53 am 05:53 Cloudy 75 23.9 71 21.7 88 88 N 6 9 30.00 1016 7 11 0.00 0.00
6:53 am 06:53 Cloudy 74 23.3 68 20 82 82 N 6 9 30.02 1017 8 13 0.00 0.00
7:15 am 07:15 Mostly Cloudy 74 23.3 64 17.8 71 71 N 6 9 30.03 1017 10 16 0.00 0.00
7:53 am 07:53 Sunny 72 22.2 63 17.2 73 73 VRB 6 9 30.04 1017 10 16 0.00 0.00
8:53 am 08:53 Sunny 75 23.9 64 17.8 69 69 N 7 11 30.04 1017 10 16 0.00 0.00
9:53 am 09:53 Sunny 77 25 65 18.3 66 66 NNW 5 7 30.05 1018 10 16 0.00 0.00
10:53 am 10:53 Sunny 79 26.1 66 18.9 65 65 NNW 7 11 30.05 1018 10 16 0.00 0.00
11:53 am 11:53 Sunny 82 27.8 67 19.4 60 60 N 5 7 30.04 1017 10 16 0.00 0.00
12:53 pm 12:53 Sunny 83 28.3 64 17.8 53 53 NW 6 9 30.03 1017 10 16 0.00 0.00
1:53 pm 13:53 Sunny 85 29.4 65 18.3 51 51 NNW 6 9 30.02 1017 10 16 0.00 0.00
2:53 pm 14:53 Sunny 84 28.9 62 16.7 48 48 N 7 11 30.01 1016 10 16 0.00 0.00
3:53 pm 15:53 Sunny 83 28.3 62 16.7 49 49 NNW 9 15 30.00 1016 10 16 0.00 0.00
4:53 pm 16:53 Sunny 82 27.8 59 15 46 46 WNW 6 9 29.99 1016 10 16 0.00 0.00
5:53 pm 17:53 Sunny 80 26.7 59 15 49 49 NNW 7 11 29.99 1016 10 16 0.00 0.00
6:53 pm 18:53 Sunny 77 25 60 15.6 56 56 NW 8 13 29.99 1016 10 16 0.00 0.00
7:53 pm 19:53 Clear 72 22.2 61 16.1 68 68 NNW 5 7 30.00 1016 10 16 0.00 0.00
8:53 pm 20:53 Clear 70 21.1 61 16.1 73 73 NW 3 6 30.01 1016 10 16 0.00 0.00
9:53 pm 21:53 Clear 70 21.1 61 16.1 73 73 NNW 7 11 30.02 1017 10 16 0.00 0.00
10:53 pm 22:53 Clear 69 20.6 58 14.4 68 68 N 6 9 30.03 1017 10 16 0.00 0.00
11:53 pm 23:53 Clear 68 20 58 14.4 70 70 N 6 9 30.04 1017 10 16 0.00 0.00

Powered by AerisWeather